Home > Weather > Kristiansund > Past weeks

Flag for Norway Weather for the Past 2 Weeks in Kristiansund, Norway

Now
52 °F

Broken clouds.


Feels Like: 50 °F
Forecast: 45 / 55 °F
Wind: 6 mph from North

Location: Kristiansund / Kvernberget

Current Time: May 1, 2016 at 5:43:24 PM

Latest Report: May 1, 2016 at 4:50 PM


Visibility: N/A

Pressure: 30.07 "Hg

Humidity: 44%

Dew Point: 30 °F

Location of KristiansundLocation

Historic Weather in Kristiansund — Graph

°F

Kristiansund Temperature Yesterday

Maximum temperature yesterday: 54 °F (at 3:20 PM)
Minimum temperature yesterday: 43 °F (at 7:50 AM)
Average temperature yesterday: 49 °F

High & Low Weather Summary for the Past Weeks

 TemperatureHumidityPressure
High57 °F (May 1, 1:50 PM)100% (Apr 21, 10:20 AM)30.24 "Hg (Apr 21, 10:20 AM)
Low30 °F (Apr 23, 1:50 AM)28% (Apr 28, 2:20 PM)29.27 "Hg (Apr 18, 12:20 PM)
Average41 °F73%29.83 "Hg
* Reported Apr 16 4:20 PM — May 1 4:20 PM, Kristiansund, Weather by CustomWeather, © 2016

Note: Actual official high and low records may vary slightly from our data, if they occured in-between our weather recording intervals... More about our weather records

Advertising

Kristiansund Weather History for the Previous 24 Hours

Scroll right to see more
 ConditionsComfort  
Time TempWeatherWind HumidityBarometerVisibility
4:20 PM
Sun, May 1
52 °FPartly sunny.6 mph47%30.07 "HgN/A
3:50 PM52 °FPartly sunny.3 mph50%30.07 "HgN/A
3:20 PM50 °FPartly sunny.3 mph50%30.07 "HgN/A
2:50 PM50 °FPartly sunny.7 mph50%30.07 "HgN/A
2:20 PM54 °FScattered clouds.7 mph44%30.07 "HgN/A
1:50 PM57 °FPassing clouds.5 mph29%30.07 "HgN/A
1:20 PM55 °FPassing clouds.5 mph31%30.09 "HgN/A
12:50 PM55 °FPassing clouds.6 mph31%30.09 "HgN/A
12:20 PM54 °FPassing clouds.8 mph33%30.09 "HgN/A
11:50 AM54 °FPassing clouds.8 mph35%30.09 "HgN/A
11:20 AM54 °FSunny.6 mph35%30.09 "Hg10 mi
10:50 AM54 °FPassing clouds.8 mph35%30.09 "HgN/A
10:20 AM54 °FPassing clouds.7 mph38%30.09 "HgN/A
9:50 AM52 °FPassing clouds.5 mph38%30.09 "HgN/A
9:20 AM48 °FScattered clouds.5 mph46%30.09 "HgN/A
8:50 AM48 °FScattered clouds.5 mph46%30.09 "HgN/A
8:20 AM50 °FPassing clouds.7 mph43%30.09 "HgN/A
7:50 AM50 °FOvercast.5 mph43%30.09 "HgN/A
7:20 AM48 °FMostly cloudy.1 mph46%30.09 "HgN/A
6:50 AM46 °FOvercast.6 mph50%30.09 "HgN/A
6:20 AM45 °FPartly sunny.6 mph57%30.09 "HgN/A
5:50 AM45 °FPassing clouds.2 mph53%30.09 "HgN/A
4:50 AM43 °FQuite cool.3 mph57%30.09 "HgN/A
4:20 AM43 °FQuite cool.7 mph61%30.09 "HgN/A
3:50 AM45 °FQuite cool.5 mph57%30.09 "HgN/A
3:20 AM43 °FQuite cool.5 mph57%30.09 "HgN/A
2:50 AM43 °FQuite cool.2 mph61%30.07 "HgN/A
2:20 AM43 °FQuite cool.3 mph61%30.07 "HgN/A
1:50 AM45 °FPassing clouds.3 mph57%30.07 "HgN/A
1:20 AM45 °FQuite cool.6 mph57%30.07 "HgN/A
12:50 AM45 °FPassing clouds.2 mph57%30.07 "HgN/A
12:20 AM46 °FCool.5 mph53%30.07 "HgN/A
11:50 PM
Sat, Apr 30
46 °FCool.6 mph53%30.07 "HgN/A
11:20 PM46 °FCool.3 mph53%30.07 "HgN/A
10:50 PM48 °FPassing clouds.3 mph50%30.07 "HgN/A
10:20 PM48 °FCool.5 mph50%30.07 "HgN/A
9:50 PM48 °FPassing clouds.6 mph50%30.07 "HgN/A
9:20 PM50 °FPassing clouds.5 mph47%30.07 "HgN/A
8:50 PM50 °FSunny.2 mph47%30.07 "Hg10 mi
8:20 PM50 °FPassing clouds.8 mph47%30.04 "HgN/A
7:50 PM52 °FSunny.8 mph44%30.04 "Hg10 mi
7:20 PM52 °FPassing clouds.7 mph44%30.04 "HgN/A
6:50 PM54 °FSunny.9 mph41%30.04 "Hg10 mi
6:20 PM54 °FPassing clouds.8 mph38%30.04 "HgN/A
5:50 PM54 °FPassing clouds.9 mph38%30.04 "HgN/A
5:20 PM54 °FPassing clouds.6 mph35%30.04 "HgN/A
Weather by CustomWeather, © 2016

See weather overviewHow to use our weather pages